Probability
0 0 0 0 0 0 0 0 0 0 0 0 0 0 0 0 0 0 0 0 0 0 0 0 0 0 0 0 0 0 0 0 0 0 0 1 4 6 7 7 5 2 0 0
0 0 0 0 0 0 0 0 0 0 0 0 0 0 0 0 0 0 0 0 0 0 0 0 0 0 0 0 0 0 0 0 0 0 0 1 3 5 6 7 5 3 1 0
0 0 0 0 0 0 0 0 0 0 0 0 0 0 0 0 0 0 0 0 0 0 0 0 0 0 0 0 0 0 0 0 0 0 0 1 2 4 4 4 4 3 2 1
0 0 0 0 0 0 0 0 0 0 0 0 0 0 0 0 0 0 0 0 0 0 0 0 0 0 0 0 0 0 0 0 0 0 0 1 2 2 2 1 2 3 3 2
0 0 0 0 0 0 0 0 0 0 0 0 0 0 0 0 0 0 0 0 0 0 0 0 0 0 0 0 0 0 0 0 0 0 0 1 1 1 0 0 1 2 3 4
0 0 0 0 0 0 0 0 0 0 0 0 0 0 0 0 0 0 0 0 0 0 0 0 0 0 0 0 0 0 0 0 0 0 0 0 0 0 0 0 0 0 2 4
0 0 0 0 0 0 0 0 0 0 0 0 0 0 0 0 0 0 0 0 0 0 0 0 0 0 0 0 0 0 0 0 0 0 0 0 0 0 0 0 0 0 0 1
0 0 0 0 0 0 0 0 0 0 0 0 0 0 0 0 0 0 0 0 0 0 0 0 0 0 0 0 0 0 0 0 0 0 0 0 0 0 0 0 0 0 0 0
0 0 0 0 0 0 0 0 0 0 0 0 0 0 0 0 0 0 0 0 0 0 0 0 0 0 0 0 0 0 0 0 0 0 0 0 0 0 0 0 0 0 0 0
0 0 0 0 0 0 0 0 0 0 0 0 0 0 0 0 0 0 0 0 0 0 0 0 0 0 0 0 0 0 0 0 0 0 0 0 0 0 0 0 0 0 0 0
0 0 0 0 0 0 0 0 0 0 0 0 0 0 0 0 0 0 0 0 0 0 0 0 0 0 0 0 0 0 0 0 0 0 0 0 0 0 0 0 0 0 0 0
0 0 0 0 0 0 0 0 0 0 0 0 0 0 0 0 0 0 0 0 0 0 0 0 0 0 0 0 0 0 0 0 0 0 0 0 0 0 0 0 0 0 0 0
0 0 0 0 0 0 0 0 0 0 0 0 0 0 0 0 0 0 0 0 0 0 0 0 0 0 0 0 0 0 0 0 0 0 0 0 0 0 0 0 0 0 0 1
0 0 0 0 0 0 0 0 0 0 0 0 0 0 0 0 0 0 0 0 0 0 0 0 0 0 0 0 0 0 0 0 0 0 0 0 0 0 0 0 0 0 0 1
0 0 0 0 0 0 0 0 0 0 0 0 0 0 0 0 0 0 0 0 0 0 0 0 0 0 0 0 0 0 0 0 0 0 0 0 0 1 1 1 0 0 0 1
0 0 0 0 0 0 0 0 0 0 0 0 0 0 0 0 0 0 0 0 0 0 0 0 0 0 0 0 0 0 0 0 0 0 0 0 0 1 2 1 0 0 0 1
0 0 0 0 0 0 0 0 0 0 0 0 0 0 0 0 0 0 0 0 0 0 0 0 0 0 0 0 0 0 0 0 0 0 0 0 0 1 1 0 0 0 0 1
0 0 0 0 0 0 0 0 0 0 0 0 0 0 0 0 0 0 0 0 0 0 0 0 0 0 0 0 0 0 0 0 0 0 0 0 0 0 0 0 0 0 0 1
0 0 0 0 0 0 0 0 0 0 0 0 0 0 0 0 0 0 0 0 0 0 0 0 0 0 0 0 0 0 0 0 0 0 0 0 0 0 0 0 0 0 0 0
0 0 0 0 0 0 0 0 0 0 0 0 0 0 0 0 0 0 0 0 0 0 0 0 0 0 0 0 0 0 0 0 0 0 0 0 0 0 0 0 0 0 0 0
0 0 0 0 0 0 0 0 0 0 0 0 0 0 0 0 0 0 0 0 0 0 0 0 0 0 0 0 0 0 0 0 0 0 0 0 0 0 0 0 0 0 0 0
0 0 0 0 0 0 0 0 0 0 0 0 0 0 0 0 0 0 0 0 0 0 0 0 0 0 0 0 0 0 0 0 0 0 0 0 0 0 0 0 0 0 0 0
0 0 0 0 0 0 0 0 0 0 0 0 0 0 0 0 0 0 0 0 0 0 0 0 0 0 0 0 0 0 0 0 0 0 0 0 0 0 0 0 0 0 0 0
0 0 0 0 0 0 0 0 0 0 0 0 0 0 0 0 0 0 0 0 0 0 0 0 0 0 0 0 0 0 0 0 0 0 0 0 0 0 0 0 0 0 0 0
0 0 0 0 0 0 0 0 0 0 0 0 0 0 0 0 0 0 0 0 0 0 0 0 0 0 0 0 0 0 0 0 0 0 0 0 0 0 0 0 0 0 0 0
0 0 0 0 0 0 0 0 0 0 0 0 0 0 0 0 0 0 0 0 0 0 0 0 0 0 0 0 0 0 0 0 0 0 0 0 0 0 0 0 0 0 0 0
Wind_Speed
7 9 12 14 14 6 5 7 7 5 3 7 11 12 11 10 10 11 10 9 9 9 8 6 6 5 5 5 5 5 4 3 3 3 3 3 3 3 3 3 4 4 4 5
8 13 11 8 8 8 8 8 7 3 3 5 8 13 12 12 13 12 12 11 10 9 7 6 6 5 5 5 5 5 5 4 4 3 3 3 4 4 4 3 4 4 4 4
13 4 7 10 10 11 11 11 9 5 2 4 6 10 11 9 10 11 11 11 10 9 9 7 7 6 6 5 5 4 5 4 4 4 3 3 3 3 3 4 4 4 5 5
9 6 8 11 11 11 10 7 7 6 6 4 4 7 6 8 9 11 11 10 10 9 9 8 7 6 6 6 5 5 5 4 4 4 4 5 4 4 5 4 4 5 5 5
7 7 10 12 10 11 4 3 5 6 7 6 7 8 6 6 9 10 10 9 9 8 8 8 7 7 6 5 5 5 5 4 4 4 5 5 5 5 4 4 5 5 4 4
5 4 6 6 4 7 8 6 3 3 5 8 9 10 7 6 8 7 7 7 7 7 7 7 6 6 5 4 4 4 5 4 4 4 5 5 6 6 5 5 5 4 3 4
6 6 5 5 7 8 9 8 4 6 7 8 4 9 8 4 5 5 5 5 5 5 5 5 6 6 5 5 4 4 5 5 4 5 5 5 6 6 6 6 5 5 4 3
7 8 8 7 8 9 12 11 7 7 7 4 6 10 5 2 3 4 4 4 3 4 4 5 5 6 5 5 5 5 5 5 5 5 5 5 5 5 5 6 5 5 4 4
6 4 2 4 3 7 9 10 5 3 2 4 7 6 6 4 5 4 3 3 3 3 3 4 4 5 5 5 5 6 6 5 5 5 5 5 5 5 5 5 5 4 4 4
2 3 3 3 4 2 4 5 5 6 6 8 7 7 5 6 5 3 2 2 2 2 2 3 3 4 4 4 5 5 6 6 5 5 4 4 5 5 5 4 5 5 5 4
2 3 3 5 8 8 7 7 6 5 5 6 6 3 1 3 3 2 1 1 1 2 2 2 2 3 3 4 4 5 5 5 4 4 4 4 4 4 4 4 4 4 4 4
2 2 3 5 2 4 6 7 8 6 6 5 5 2 4 2 1 0 1 1 1 1 1 2 2 2 3 3 3 4 4 4 4 4 4 4 4 4 4 4 4 4 4 3
2 2 2 3 4 4 6 6 6 4 3 6 7 4 3 1 1 1 1 1 1 1 1 1 1 1 2 2 3 3 4 4 4 4 4 3 4 4 4 4 4 4 4 3
2 3 6 7 4 5 7 9 9 8 7 8 11 8 5 3 2 1 1 1 1 1 1 1 1 2 2 3 3 3 3 3 3 3 3 3 3 3 4 4 3 4 3 3
2 3 4 6 6 6 8 12 13 13 11 11 10 10 8 5 4 3 2 1 1 1 2 2 2 3 3 3 3 3 3 3 3 3 3 3 3 3 3 3 3 3 3 2
2 3 3 5 5 6 8 11 13 13 12 12 11 11 5 4 3 4 3 3 2 3 3 3 3 3 3 3 3 3 3 3 3 3 3 3 3 3 3 3 3 3 3 2
3 4 3 3 4 4 8 9 11 9 10 9 10 7 2 4 5 5 4 4 3 4 4 4 4 4 4 4 4 4 4 3 3 3 3 2 2 2 2 2 2 2 2 2
5 4 2 2 3 7 2 1 5 7 6 6 4 3 3 4 6 5 3 3 4 4 4 4 4 4 4 4 3 3 2 2 2 2 2 2 2 2 2 2 2 2 2 1
5 4 3 3 5 6 2 1 2 6 6 6 6 5 2 3 3 3 1 3 4 4 4 4 4 4 4 3 2 1 1 1 1 2 2 2 2 2 1 1 2 2 1 1
2 3 3 3 5 5 1 1 2 3 5 3 6 5 3 1 3 2 3 4 4 3 3 3 3 3 3 3 1 0 0 0 1 1 2 1 1 1 1 2 1 1 0 0
3 2 4 5 5 4 2 2 1 4 2 1 4 4 4 4 3 3 3 3 3 2 3 3 3 3 3 3 1 1 1 1 1 1 0 0 0 0 0 0 0 1 1 1
5 4 5 4 6 5 2 2 3 3 3 1 0 2 2 2 1 2 2 2 2 3 3 3 3 3 3 3 1 1 1 1 1 1 1 1 1 1 1 1 1 1 2 2
5 4 3 5 4 3 1 2 3 3 2 2 1 1 1 1 1 2 2 2 2 3 2 2 2 3 3 3 2 2 2 2 1 2 2 2 2 2 2 2 2 2 2 1
3 3 3 4 4 3 3 3 4 4 3 3 2 1 0 0 1 1 2 2 2 2 2 2 2 3 3 4 3 3 3 2 2 2 2 2 3 3 3 2 2 2 1 1
3 3 3 5 4 3 3 3 4 4 3 3 3 2 1 0 1 1 1 2 2 2 2 2 2 2 3 3 3 3 3 2 2 3 2 2 3 3 2 2 2 2 1 1
2 4 4 4 3 4 4 3 3 2 3 2 2 2 2 1 0 1 1 1 1 2 2 2 2 2 3 3 3 3 3 2 2 2 2 2 2 2 2 2 3 5 4 4
Wind_Direction
178 200 208 204 210 242 219 216 225 225 202 224 236 249 249 238 233 234 230 224 221 221 216 209 212 211 213 218 224 227 232 232 238 241 244 245 250 258 257 258 260 258 257 255
182 220 219 207 205 213 216 221 230 234 211 238 257 262 256 244 235 232 230 225 222 221 212 207 211 210 216 220 225 228 229 234 236 240 246 248 257 259 264 265 265 263 260 255
209 196 187 190 194 206 221 228 229 227 231 243 268 263 237 229 227 228 230 230 225 220 218 210 211 214 220 224 228 233 232 235 238 242 239 248 250 254 257 264 267 264 264 258
222 209 187 195 206 209 226 227 224 217 223 231 235 273 237 218 221 221 222 221 222 218 217 214 213 217 222 225 226 232 231 232 234 236 235 238 247 255 265 268 265 267 261 257
208 191 192 204 210 205 201 168 200 219 237 253 224 252 254 214 228 222 215 214 217 219 217 215 214 219 223 220 220 226 231 232 233 238 239 240 250 259 265 264 263 266 262 259
233 215 215 210 188 187 152 140 147 201 229 244 224 230 252 213 221 214 204 207 216 220 219 219 218 219 220 217 217 224 229 232 236 241 240 241 251 258 264 265 267 267 267 264
216 211 199 186 161 170 185 178 182 197 212 234 182 226 250 232 221 227 221 217 221 222 220 219 219 220 219 219 221 225 230 236 241 244 247 248 251 254 256 260 261 264 267 269
203 210 193 194 199 189 197 207 210 215 222 201 186 233 246 233 233 237 243 235 224 220 221 223 223 222 220 220 224 227 232 238 242 246 251 252 255 256 257 257 260 258 262 266
208 209 180 198 211 187 184 212 242 252 265 250 220 237 261 217 210 214 222 219 220 226 227 225 222 224 223 222 227 230 232 236 239 245 252 256 259 261 261 259 258 258 261 264
232 208 201 178 176 200 224 175 182 208 217 233 230 233 226 195 202 199 208 222 230 234 235 231 225 225 228 230 232 233 232 234 239 244 250 258 256 258 260 258 256 261 266 263
238 188 191 194 207 194 177 188 205 212 253 245 237 216 144 183 174 192 207 236 247 242 241 238 237 232 233 236 234 235 237 239 240 244 248 256 257 257 257 258 260 261 263 263
213 201 215 229 250 263 222 207 198 209 214 236 259 238 84 130 118 194 299 311 293 269 265 262 253 236 233 238 236 235 238 239 241 244 244 249 255 255 253 256 260 262 261 261
181 172 186 202 193 193 217 216 220 233 222 218 230 217 113 103 51 354 324 334 323 288 303 304 281 258 253 250 242 239 241 245 245 242 239 243 250 252 252 255 257 259 257 256
224 216 231 232 255 200 224 224 220 216 223 228 239 244 242 258 273 307 316 325 319 305 298 309 294 280 275 265 251 245 247 244 240 237 238 244 253 256 251 252 252 255 254 254
234 235 245 273 280 247 237 224 216 222 229 235 242 244 252 258 265 271 279 285 277 300 306 304 289 282 280 277 267 255 251 244 235 234 238 244 248 252 252 253 249 255 260 258
241 228 239 265 266 254 250 234 221 227 234 242 254 257 269 274 266 259 263 267 272 294 301 302 296 294 283 275 268 259 250 244 236 232 234 242 244 241 248 249 242 246 254 257
204 192 214 242 275 262 245 221 210 224 229 226 240 255 265 256 246 248 249 257 278 291 294 291 287 284 283 277 263 251 243 235 229 229 232 235 243 244 249 247 246 244 246 253
205 209 217 208 220 230 229 81 199 215 222 217 248 275 259 262 266 262 243 262 288 295 293 291 290 291 291 292 283 257 232 223 219 222 233 234 233 246 258 249 254 254 249 244
216 199 200 209 236 259 252 171 203 215 235 220 242 257 279 325 278 235 258 300 294 294 303 307 304 304 303 304 303 260 214 199 204 233 236 236 225 228 240 251 258 254 262 277
157 197 206 219 237 239 314 1 282 226 242 208 229 237 231 227 249 260 333 311 305 312 319 320 323 326 328 326 309 232 158 181 242 259 261 263 231 211 220 234 264 307 294 299
181 199 217 234 247 260 356 13 172 211 297 325 222 218 206 224 277 319 309 305 317 335 341 338 339 344 339 330 320 67 58 342 323 320 337 0 344 264 224 221 98 66 51 55
203 202 207 217 232 246 86 135 215 314 344 337 308 219 223 254 333 346 339 330 339 350 354 355 357 1 358 360 17 60 30 354 11 58 63 47 39 38 43 67 69 83 80 69
229 231 227 220 245 335 210 262 317 332 336 343 348 322 222 240 303 333 337 342 349 355 357 1 11 11 12 15 21 39 19 15 39 67 66 59 52 48 47 65 78 79 78 76
247 261 244 251 269 280 271 321 335 335 333 339 352 353 264 269 308 325 337 344 352 358 0 4 15 20 17 15 19 29 34 39 62 67 61 55 56 54 48 44 56 73 75 78
260 229 251 262 287 296 283 301 321 329 346 2 8 0 335 208 307 318 321 333 346 350 356 4 9 15 13 16 24 28 33 51 71 71 62 57 54 53 52 52 47 47 41 30
236 233 236 259 272 271 280 296 306 306 317 328 346 350 350 355 357 334 334 340 346 352 1 10 17 22 22 28 33 31 30 46 68 72 62 59 59 55 49 54 51 46 42 34